This demonstration page uses our WeatherBlox Daily Observations layout. Learn more.

Left ArrowRight Arrow

Hourly Observations for September 16, 2020

Temp ( °F °C ) Dew Point ( °F °C ) Humidity (%) Winds ( mph kmh ) Pressure ( in mb ) Visibility ( mi km ) Precip ( " mm )
12:51 am 00:51 Clear 68 20 45 7.2 44 44 SSE 5 7 29.91 1013 10 16.0934 0 0
1:51 am 01:51 Clear 67 19.4 45 7.2 45 45 N 5 7 29.91 1013 10 16.0934 0 0
2:51 am 02:51 Clear 65 18.3 44 6.7 47 47 E 6 9 29.9 1013 10 16.0934 0 0
3:51 am 03:51 Clear 66 18.9 45 7.2 47 47 SSE 8 13 29.9 1013 10 16.0934 0 0
4:51 am 04:51 Clear 68 20 48 8.9 49 49 SSE 9 15 29.91 1013 10 16.0934 0 0
5:51 am 05:51 Clear 63 17.2 46 7.8 54 54 SSE 6 9 29.94 1014 10 16.0934 0 0
6:51 am 06:51 Sunny 68 20 46 7.8 45 45 ESE 3 6 29.94 1014 10 16.0934 0 0
7:51 am 07:51 Sunny 75 23.9 47 8.3 37 37 ESE 7 11 29.95 1014 10 16.0934 0 0
8:51 am 08:51 Sunny 81 27.2 47 8.3 30 30 Calm 29.95 1014 10 16.0934 0 0
9:51 am 09:51 Sunny 85 29.4 48 8.9 28 28 NW 8 13 29.93 1014 10 16.0934 0 0
10:51 am 10:51 Sunny 88 31.1 46 7.8 23 23 VRB 5 7 29.93 1013 10 16.0934 0 0
11:51 am 11:51 Sunny 91 32.8 44 6.7 20 20 undefined N/A 29.9 1012 10 16.0934 0 0
12:51 pm 12:51 Sunny 95 35 42 5.6 16 16 WNW 8 13 29.87 1012 10 16.0934 0 0
1:51 pm 13:51 Sunny 96 35.6 35 1.7 12 12 WSW 7 11 29.84 1010 10 16.0934 0 0
2:51 pm 14:51 Sunny 98 36.7 27 -2.8 8 8 WSW 7 11 29.81 1010 10 16.0934 0 0
3:51 pm 15:51 Sunny 98 36.7 24 -4.4 7 7 Calm 29.8 1009 10 16.0934 0 0
4:51 pm 16:51 Sunny 97 36.1 26 -3.3 8 8 W 3 6 29.79 1009 10 16.0934 0 0
5:51 pm 17:51 Sunny 96 35.6 26 -3.3 8 8 Calm 29.81 1010 10 16.0934 0 0
6:51 pm 18:51 Clear 91 32.8 36 2.2 14 14 ESE 12 19 29.83 1010 10 16.0934 0 0
7:51 pm 19:51 Clear 88 31.1 36 2.2 16 16 E 8 13 29.84 1010 10 16.0934 0 0
8:51 pm 20:51 Clear 85 29.4 36 2.2 17 17 VRB 3 6 29.86 1011 10 16.0934 0 0
9:51 pm 21:51 Clear 82 27.8 36 2.2 19 19 S 8 13 29.87 1012 10 16.0934 0 0
10:51 pm 22:51 Clear 78 25.6 36 2.2 22 22 E 7 11 29.88 1012 10 16.0934 0 0
11:51 pm 23:51 Clear 76 24.4 36 2.2 23 23 E 8 13 29.88 1012 10 16.0934 0 0

Powered by AerisWeather